Wind_Speed
120 120 121 122 125 127 128 130 131 132 133 133 132 133 133 131 130 129 127 125 125 123 122 120 118 115 112 109 106 104 102 100 99 97 96 95 93 93 92 92 92 91 90 89 88 87 87 86 85 83 83 82
117 117 117 118 120 124 126 128 130 131 132 132 131 132 133 132 132 131 130 129 128 128 126 125 123 120 117 114 112 109 107 104 103 101 99 98 97 96 96 95 94 93 92 91 91 90 89 89 88 87 86 85
113 112 112 112 114 117 122 125 128 129 130 131 131 132 133 133 133 132 131 131 131 130 130 128 127 124 121 119 116 114 112 109 107 105 103 101 100 100 99 98 97 95 94 93 92 92 91 91 90 90 89 88
114 112 110 109 108 110 114 119 123 127 129 130 130 132 133 133 133 133 133 132 132 132 131 130 129 128 126 123 120 118 116 114 112 110 108 106 105 104 102 101 100 98 97 96 95 94 93 93 92 92 92 91
117 115 113 111 108 105 106 110 115 121 125 127 129 131 133 134 134 133 134 133 133 133 132 132 131 130 129 127 125 122 120 119 117 115 113 111 109 107 106 105 104 102 101 100 98 96 95 94 94 95 95 94
116 117 117 115 112 108 104 103 107 112 117 122 125 129 132 133 134 134 134 134 134 133 133 133 133 132 131 130 128 126 124 123 121 119 117 115 113 111 110 109 107 106 105 103 101 100 98 96 96 96 97 97
112 116 118 117 116 114 110 105 103 106 110 114 118 123 128 131 133 133 134 135 135 135 134 134 134 134 133 132 130 128 127 126 125 123 121 119 117 115 114 113 112 110 109 107 105 104 102 100 99 98 97 98
105 111 116 118 119 118 116 112 108 105 106 109 112 117 122 127 130 131 133 134 136 136 135 135 134 134 134 133 132 130 129 128 128 126 124 122 120 119 118 117 116 114 113 111 109 108 106 104 102 100 99 99
99 104 110 115 119 120 120 120 116 111 108 108 110 113 117 121 125 128 130 132 134 136 136 135 134 134 134 134 133 132 131 131 131 129 128 126 124 122 121 120 120 118 117 115 113 111 110 107 105 104 102 101
96 100 105 110 115 119 121 122 122 119 115 112 112 113 115 118 121 124 126 129 132 134 135 136 134 133 134 134 134 133 133 133 132 132 130 129 127 125 124 123 123 122 121 119 117 115 114 111 109 107 106 105
91 96 100 105 110 115 119 122 123 122 119 117 115 116 117 118 119 120 123 125 128 130 132 134 134 133 132 133 134 134 134 134 134 134 133 131 130 128 127 126 126 125 124 123 121 119 118 115 113 112 109 108
83 90 95 99 104 109 114 118 122 123 122 120 118 117 118 120 120 120 121 123 124 126 128 131 133 132 131 130 132 134 135 135 135 135 135 133 132 131 130 129 129 128 128 126 125 123 121 119 118 116 114 112
77 82 88 93 98 102 107 112 117 121 123 123 121 119 118 119 121 121 121 123 124 125 126 128 129 131 130 129 130 133 135 136 136 137 137 136 134 133 132 132 132 131 131 129 128 127 124 122 121 120 118 115
72 76 81 86 91 95 99 104 109 115 120 123 123 122 120 118 119 121 122 123 124 125 126 127 127 129 130 129 128 131 134 136 137 137 138 137 136 135 135 135 134 134 133 133 131 130 128 126 125 124 122 119
68 72 76 80 84 88 92 95 100 106 113 118 122 123 122 120 118 119 121 123 125 126 127 128 128 128 129 129 128 128 132 135 137 138 139 139 138 137 137 137 137 137 136 135 134 132 130 129 128 127 126 123
64 67 71 75 78 82 85 88 92 97 103 110 115 119 121 121 119 118 120 122 124 126 127 128 129 129 129 129 129 128 129 132 135 138 139 139 139 139 139 140 139 139 138 138 137 135 133 133 132 131 129 126
61 63 66 70 73 76 79 82 85 89 94 100 106 111 116 118 119 119 120 121 123 125 127 128 129 131 131 130 129 129 129 130 133 136 139 140 140 141 141 141 141 141 141 140 139 138 137 136 135 134 132 129
59 60 62 65 68 71 74 77 80 83 87 92 97 103 107 112 115 117 119 121 122 124 126 127 129 130 131 131 131 130 130 130 131 134 137 139 140 141 142 143 143 143 143 142 141 141 140 140 139 137 135 132
55 57 59 61 63 67 70 73 76 79 82 86 90 95 100 104 109 112 116 119 121 123 125 126 128 129 130 131 132 131 131 131 131 132 135 138 140 142 143 144 145 145 144 144 144 143 143 142 141 140 138 136
51 53 56 59 61 63 66 69 73 76 79 81 85 90 94 98 102 107 111 115 118 121 123 125 126 128 129 130 131 132 132 132 133 133 134 136 138 141 143 144 146 146 146 146 146 146 145 145 144 142 141 139
49 50 53 56 59 61 63 66 69 73 76 78 81 85 89 93 97 101 105 109 113 117 120 122 125 126 128 129 130 132 133 133 134 134 135 136 137 139 141 144 146 147 147 148 148 148 148 147 146 145 144 142
46 47 50 53 56 58 61 62 65 69 73 75 78 81 84 88 91 95 100 104 108 112 115 118 121 125 127 128 129 131 132 134 134 135 135 136 137 138 140 142 144 146 148 148 149 150 150 149 149 147 146 145
44 44 46 49 53 56 58 60 62 65 69 72 75 77 79 83 86 90 94 99 103 107 111 114 117 121 124 127 128 129 131 133 134 135 136 136 137 138 139 141 143 144 146 148 149 151 152 152 151 149 148 147
48 46 45 46 49 53 55 58 59 61 65 68 71 74 76 78 82 85 89 94 98 102 106 110 113 116 120 123 126 128 130 132 134 135 136 137 138 138 139 140 142 143 144 146 148 150 152 153 153 152 151 150
51 48 47 46 46 48 52 55 57 59 61 63 66 70 73 75 78 81 85 89 93 97 101 105 108 111 114 118 122 125 128 130 132 134 136 137 138 139 139 140 142 143 143 144 146 148 150 153 154 154 153 153
54 50 47 47 47 47 48 51 54 57 58 60 62 65 69 72 74 77 80 84 88 92 96 100 104 107 110 114 118 122 125 128 131 133 135 137 139 140 140 141 142 143 144 144 145 147 148 151 153 155 155 155
57 52 47 45 45 46 47 47 50 53 55 56 58 60 63 67 70 73 76 80 83 88 92 96 100 103 107 111 114 118 122 126 129 131 134 136 138 140 141 142 142 143 144 145 145 146 147 149 152 154 155 156
59 54 49 44 42 43 45 46 46 48 51 53 54 56 58 61 65 68 71 74 79 83 87 91 95 99 103 107 110 114 118 122 126 129 132 135 137 139 141 142 143 144 145 145 146 146 147 148 150 152 154 155
61 57 52 46 42 40 41 43 43 44 47 49 50 52 54 57 60 64 67 70 73 78 83 87 91 95 99 103 107 110 113 117 122 126 130 133 135 138 140 142 144 145 146 146 146 147 148 148 149 150 152 154
62 59 55 50 44 39 38 39 41 41 43 45 47 48 50 53 56 60 64 66 69 73 78 83 87 91 95 99 103 106 110 114 117 122 126 130 133 136 138 141 144 146 147 147 147 148 149 149 149 150 151 152
64 59 55 52 47 43 38 37 38 39 40 42 44 45 47 49 52 56 61 64 67 69 73 77 82 87 91 95 99 103 106 110 113 117 121 126 130 133 136 139 142 145 147 148 148 149 149 150 150 150 151 152
Wind_Direction
264 262 261 260 260 259 258 258 258 258 258 258 258 257 257 257 257 256 255 254 254 253 252 251 250 249 247 246 246 245 245 245 244 244 243 243 242 241 241 240 239 238 237 236 236 236 237 236 235 234 234 235
266 263 260 258 258 258 257 257 257 256 256 256 256 256 256 256 256 255 255 254 253 252 252 251 250 249 248 246 246 245 245 244 244 244 243 243 242 242 241 241 240 239 238 237 236 236 237 237 236 235 235 235
269 266 263 259 256 255 255 255 255 255 255 255 255 254 254 254 254 254 254 253 253 252 251 251 251 250 249 247 246 245 245 244 244 244 243 243 243 242 242 241 241 240 239 238 237 236 236 237 237 236 235 235
272 270 267 264 259 255 253 253 253 254 254 254 253 253 253 253 253 253 253 252 252 252 251 251 250 250 249 248 247 246 245 244 244 244 243 242 242 242 242 242 242 241 240 239 238 237 236 236 237 237 236 236
272 271 270 268 265 259 254 251 251 251 252 252 252 252 252 251 251 251 251 252 251 251 251 250 250 250 249 249 248 247 246 245 244 244 243 242 242 242 242 242 242 241 241 240 239 238 237 236 236 237 237 236
268 269 269 268 267 265 260 254 251 251 250 250 250 250 250 250 250 250 250 250 250 250 249 249 249 249 249 248 248 247 246 245 245 244 243 242 242 241 242 242 242 242 241 241 239 238 237 236 236 237 237 237
264 265 266 266 266 265 263 259 255 252 251 250 249 249 249 249 249 249 249 249 249 249 248 248 248 248 248 248 248 247 247 246 245 245 243 243 242 241 241 241 242 241 241 241 240 239 238 237 236 236 237 238
261 260 260 261 262 262 262 261 258 255 252 250 249 248 247 248 248 248 248 248 248 248 248 247 247 247 247 247 247 247 246 246 246 245 244 243 242 242 241 241 241 241 241 241 240 240 239 238 237 236 237 238
261 258 257 257 257 258 258 259 258 257 254 251 249 248 247 246 247 247 247 247 247 247 248 247 246 246 246 246 246 246 245 245 245 245 245 244 243 242 241 241 241 241 241 241 240 240 240 239 237 237 237 238
262 259 256 255 254 254 254 255 255 256 254 252 250 248 247 246 245 246 246 246 246 246 247 247 246 245 245 245 245 245 245 244 244 244 244 244 244 243 242 242 241 241 241 241 240 240 240 239 238 238 237 237
262 260 257 255 253 252 252 252 253 253 253 252 250 248 247 246 245 244 245 245 245 246 246 247 247 246 244 244 244 244 244 244 244 244 244 244 243 243 242 242 241 241 241 241 241 240 240 240 239 238 237 237
264 261 259 256 254 252 251 251 251 252 252 252 251 249 247 246 245 244 244 244 244 245 245 245 246 247 245 243 243 244 244 244 243 243 243 243 243 242 242 242 241 241 241 241 241 240 240 240 240 239 238 237
267 263 260 258 256 254 252 250 250 250 250 251 250 249 247 245 244 244 243 243 242 243 243 244 244 246 245 243 242 242 243 243 243 243 243 243 242 242 242 241 241 241 241 241 241 241 240 240 240 239 238 237
270 265 262 260 258 256 254 252 250 249 249 249 249 249 248 246 244 243 242 242 241 241 241 242 242 243 244 244 242 240 241 242 242 242 242 242 242 242 241 241 240 240 240 241 241 241 241 240 240 240 239 237
272 268 264 261 259 257 255 254 252 250 249 248 248 248 248 247 245 243 242 241 241 240 240 240 241 241 241 242 241 240 239 240 241 241 241 242 241 241 241 241 240 240 240 240 241 241 241 240 240 240 239 238
274 270 266 263 261 259 257 255 253 251 250 249 248 247 247 247 246 244 243 241 240 240 239 239 239 239 239 240 240 240 239 238 239 240 240 241 241 241 240 240 240 240 240 239 240 240 240 240 240 240 240 239
277 272 268 266 263 260 259 257 254 252 251 250 249 248 247 247 246 245 244 242 241 240 239 238 238 238 238 238 238 239 238 238 237 238 239 239 240 240 240 240 240 240 240 239 239 239 240 240 240 240 240 240
281 276 271 268 265 262 260 258 256 254 252 250 249 248 247 247 246 245 244 243 242 241 240 239 238 237 237 237 237 237 237 237 237 237 237 238 238 239 239 239 239 239 240 240 239 239 239 239 240 240 240 240
285 280 276 271 267 264 262 260 257 255 253 251 249 248 247 246 245 245 244 243 242 241 240 239 238 237 237 236 236 236 236 236 236 236 236 236 237 237 238 238 239 239 239 239 239 239 239 239 239 240 240 240
289 283 279 275 270 266 263 261 259 257 254 252 250 248 247 246 245 244 243 243 242 241 240 239 239 238 237 236 236 236 235 235 235 235 235 235 236 236 237 237 238 238 238 239 239 239 239 239 239 239 240 240
296 288 282 278 274 270 266 263 261 259 256 254 252 250 248 246 245 244 243 243 242 241 240 238 238 238 238 237 236 235 235 234 234 234 235 235 235 235 236 236 237 237 237 238 238 239 239 239 239 239 239 240
301 294 287 282 277 273 269 266 263 261 259 256 254 251 249 248 246 245 243 243 242 242 241 239 237 237 237 237 236 235 235 234 234 233 234 234 234 235 235 235 236 236 236 237 237 238 238 239 239 239 239 239
308 299 292 286 282 278 273 269 265 262 261 259 256 254 252 250 248 246 244 243 242 242 241 241 239 237 236 236 236 235 235 234 234 233 233 233 234 234 234 235 235 235 236 236 236 237 237 238 239 239 239 239
319 309 299 290 284 281 277 273 269 265 262 260 258 256 253 251 249 247 245 244 243 241 241 241 240 238 237 235 235 235 235 234 234 233 233 233 233 233 234 234 235 235 235 235 235 236 236 237 238 238 239 239
325 317 308 298 289 283 279 276 273 269 265 262 260 258 255 252 250 248 246 244 243 242 242 241 240 240 238 237 235 234 234 234 234 233 233 233 232 232 233 233 234 235 235 235 235 235 236 236 237 238 238 238
329 322 314 305 296 289 283 279 275 272 269 266 262 259 257 254 251 249 247 245 243 242 242 241 241 240 239 239 237 235 234 234 234 233 233 233 232 232 232 232 233 234 234 234 235 235 235 235 236 236 237 237
332 326 318 310 301 295 289 283 279 275 272 269 266 262 258 256 254 251 248 246 244 242 241 241 240 240 239 239 238 237 235 233 233 233 233 233 232 232 232 232 232 233 234 234 234 235 235 235 235 235 236 236
335 329 323 315 306 300 294 288 283 279 276 272 268 264 260 258 256 253 250 247 245 243 242 241 240 239 239 238 238 237 236 235 233 233 233 233 233 232 232 232 232 232 232 233 234 234 235 235 235 235 235 236
338 334 328 320 312 304 299 294 289 284 279 275 271 266 262 258 256 255 252 249 246 243 242 241 240 239 238 238 238 237 237 236 235 233 232 233 233 233 232 232 231 231 231 232 233 233 234 235 235 235 235 235
342 338 332 326 319 311 304 299 295 290 284 279 274 269 264 260 257 255 254 251 247 244 242 241 240 239 238 238 237 237 236 236 236 235 233 232 232 232 232 232 232 232 231 231 231 232 233 234 235 235 235 235
345 341 336 332 326 318 311 305 300 296 291 285 278 272 267 263 259 256 254 253 250 247 243 241 240 239 238 237 237 237 236 236 235 235 235 233 232 232 232 232 232 232 232 231 231 231 232 233 234 234 235 235
Height
10564 10568 10570 10571 10571 10572 10572 10573 10574 10577 10578 10582 10587 10590 10592 10597 10600 10606 10614 10621 10625 10628 10633 10637 10641 10646 10652 10658 10663 10667 10671 10676 10680 10684 10690 10694 10698 10701 10703 10704 10707 10711 10714 10719 10724 10727 10730 10733 10737 10741 10744 10746
10539 10543 10549 10552 10553 10553 10553 10554 10556 10558 10561 10564 10570 10573 10575 10579 10582 10587 10594 10602 10607 10612 10616 10621 10625 10631 10638 10644 10649 10654 10659 10663 10668 10673 10678 10682 10686 10689 10691 10694 10697 10701 10705 10710 10715 10719 10722 10725 10729 10732 10735 10738
10516 10518 10523 10529 10534 10536 10536 10536 10537 10539 10542 10546 10551 10555 10558 10561 10565 10569 10575 10582 10588 10594 10599 10604 10609 10615 10622 10628 10635 10641 10645 10650 10655 10661 10666 10670 10674 10677 10680 10683 10686 10691 10696 10700 10704 10709 10713 10716 10720 10723 10726 10730
10495 10496 10498 10502 10509 10515 10518 10518 10519 10520 10523 10528 10533 10536 10540 10543 10547 10551 10556 10563 10570 10576 10581 10587 10592 10598 10605 10611 10619 10625 10631 10637 10642 10648 10654 10658 10662 10665 10668 10672 10676 10681 10685 10689 10693 10699 10703 10708 10711 10713 10717 10720
10476 10476 10477 10479 10482 10489 10495 10500 10502 10503 10505 10510 10515 10518 10521 10524 10529 10534 10539 10544 10552 10558 10564 10570 10576 10581 10588 10594 10602 10609 10616 10622 10628 10634 10640 10645 10650 10653 10657 10660 10664 10669 10674 10678 10682 10688 10693 10698 10702 10703 10706 10710
10458 10456 10457 10458 10460 10464 10470 10477 10482 10485 10488 10492 10497 10500 10502 10505 10511 10517 10522 10526 10532 10540 10546 10552 10559 10565 10571 10578 10585 10592 10600 10606 10612 10618 10625 10631 10637 10641 10644 10648 10652 10657 10661 10666 10671 10677 10681 10687 10691 10693 10696 10699
10442 10439 10437 10438 10440 10442 10446 10452 10459 10465 10470 10475 10479 10482 10484 10487 10493 10499 10505 10509 10513 10519 10527 10534 10542 10549 10555 10561 10568 10576 10585 10591 10597 10603 10610 10617 10623 10629 10633 10636 10639 10644 10649 10653 10660 10664 10669 10675 10680 10684 10687 10690
10426 10422 10420 10419 10420 10422 10425 10429 10435 10442 10449 10455 10461 10464 10467 10470 10475 10481 10487 10492 10496 10500 10507 10516 10525 10532 10538 10545 10552 10561 10569 10576 10582 10588 10594 10602 10609 10615 10620 10623 10626 10631 10636 10640 10647 10651 10656 10662 10668 10674 10678 10681
10408 10406 10403 10402 10402 10403 10405 10408 10412 10419 10427 10434 10441 10445 10449 10453 10458 10464 10469 10475 10480 10483 10488 10496 10507 10516 10522 10530 10537 10545 10554 10560 10566 10572 10579 10586 10593 10600 10606 10610 10614 10618 10623 10627 10633 10639 10644 10650 10657 10663 10668 10672
10387 10387 10386 10385 10385 10385 10386 10389 10392 10397 10404 10412 10420 10425 10430 10435 10441 10446 10452 10457 10463 10468 10472 10478 10488 10499 10507 10514 10521 10529 10537 10544 10550 10556 10563 10570 10578 10585 10592 10597 10601 10605 10609 10614 10620 10626 10631 10637 10643 10650 10656 10661
10368 10367 10367 10367 10368 10368 10369 10371 10373 10377 10383 10389 10397 10404 10410 10415 10422 10429 10435 10441 10447 10452 10458 10462 10469 10480 10492 10499 10506 10513 10521 10528 10535 10541 10547 10555 10563 10570 10577 10583 10587 10591 10595 10600 10606 10612 10618 10624 10630 10636 10643 10649
10352 10349 10349 10349 10350 10351 10352 10354 10356 10359 10363 10369 10375 10382 10389 10396 10403 10411 10418 10424 10431 10436 10443 10449 10453 10461 10473 10484 10492 10498 10504 10512 10518 10525 10531 10539 10547 10555 10562 10568 10573 10577 10581 10587 10593 10598 10605 10612 10617 10622 10629 10636
10337 10335 10333 10333 10333 10333 10335 10337 10340 10342 10345 10350 10356 10361 10368 10376 10384 10392 10399 10406 10412 10418 10424 10432 10438 10443 10452 10465 10476 10482 10487 10495 10502 10508 10515 10523 10531 10539 10547 10553 10558 10562 10567 10573 10579 10584 10591 10598 10603 10608 10615 10623
10322 10320 10319 10317 10317 10317 10318 10321 10323 10325 10328 10332 10337 10342 10348 10355 10365 10373 10379 10386 10392 10399 10405 10412 10420 10427 10432 10442 10456 10466 10471 10477 10485 10491 10498 10506 10515 10523 10531 10537 10542 10547 10553 10558 10564 10570 10577 10585 10590 10594 10600 10608
10310 10307 10305 10303 10303 10302 10303 10306 10307 10309 10311 10314 10319 10324 10330 10336 10345 10354 10361 10367 10373 10379 10386 10393 10401 10408 10415 10422 10434 10446 10454 10461 10467 10474 10481 10489 10498 10507 10514 10520 10525 10531 10538 10543 10549 10556 10564 10570 10575 10580 10585 10593
10298 10295 10293 10291 10290 10289 10290 10291 10292 10294 10296 10299 10302 10307 10313 10318 10326 10335 10342 10349 10355 10360 10367 10374 10381 10389 10397 10405 10415 10425 10435 10443 10450 10456 10463 10471 10480 10489 10496 10503 10509 10515 10522 10529 10535 10542 10549 10555 10560 10565 10571 10579
10287 10284 10282 10279 10278 10277 10278 10278 10279 10280 10282 10285 10288 10292 10297 10303 10309 10316 10323 10330 10337 10343 10349 10356 10363 10370 10378 10388 10397 10406 10416 10424 10432 10439 10446 10453 10462 10470 10478 10485 10491 10498 10506 10513 10520 10527 10533 10539 10544 10550 10557 10565
10275 10273 10272 10269 10267 10266 10266 10265 10265 10267 10268 10271 10273 10277 10282 10287 10293 10299 10304 10311 10319 10327 10333 10339 10346 10353 10360 10369 10379 10388 10397 10405 10413 10422 10428 10435 10444 10452 10460 10467 10474 10482 10489 10496 10504 10512 10518 10523 10529 10535 10543 10551
10266 10262 10260 10258 10256 10254 10253 10253 10253 10253 10254 10256 10258 10261 10266 10271 10276 10282 10287 10292 10300 10308 10316 10323 10329 10337 10344 10352 10361 10370 10379 10387 10394 10403 10411 10417 10426 10434 10441 10449 10456 10464 10473 10480 10487 10495 10502 10508 10514 10521 10528 10536
10258 10253 10249 10246 10245 10243 10241 10240 10239 10240 10241 10242 10244 10247 10250 10254 10259 10265 10270 10275 10281 10288 10296 10305 10313 10321 10329 10337 10344 10352 10360 10368 10376 10384 10392 10399 10407 10415 10423 10431 10438 10446 10455 10463 10470 10477 10485 10492 10498 10506 10513 10520
10249 10244 10240 10236 10234 10232 10230 10229 10228 10227 10228 10229 10231 10232 10235 10239 10245 10249 10254 10259 10265 10269 10275 10285 10295 10303 10311 10319 10327 10334 10341 10349 10356 10364 10373 10380 10389 10397 10404 10412 10420 10428 10437 10446 10453 10460 10468 10475 10482 10490 10498 10505
10242 10236 10231 10227 10224 10221 10219 10218 10217 10215 10215 10217 10218 10220 10222 10226 10231 10235 10239 10244 10249 10254 10259 10266 10275 10283 10291 10300 10308 10316 10324 10331 10338 10346 10355 10362 10370 10379 10387 10394 10402 10410 10419 10428 10437 10444 10450 10457 10465 10474 10482 10489
10234 10229 10224 10219 10215 10211 10209 10207 10207 10205 10203 10204 10206 10208 10211 10214 10217 10221 10225 10229 10233 10238 10243 10249 10256 10264 10271 10280 10289 10299 10307 10314 10321 10329 10338 10346 10353 10361 10370 10377 10384 10392 10401 10410 10420 10427 10434 10440 10448 10457 10466 10474
10226 10220 10215 10211 10207 10203 10199 10197 10195 10195 10193 10193 10194 10196 10199 10202 10204 10207 10211 10215 10218 10222 10226 10232 10238 10246 10254 10262 10271 10280 10288 10296 10304 10313 10321 10329 10336 10344 10353 10360 10367 10374 10383 10393 10402 10410 10417 10424 10431 10440 10448 10456
10219 10213 10207 10202 10199 10195 10191 10188 10185 10183 10183 10182 10183 10184 10185 10187 10189 10192 10197 10202 10205 10209 10214 10218 10224 10231 10239 10247 10255 10262 10270 10279 10287 10295 10303 10311 10318 10325 10334 10343 10350 10357 10366 10376 10384 10391 10399 10407 10415 10423 10431 10438
10213 10207 10200 10194 10189 10186 10183 10180 10176 10173 10172 10172 10172 10173 10173 10174 10177 10180 10184 10189 10192 10196 10201 10205 10211 10216 10223 10231 10238 10245 10252 10260 10268 10277 10285 10292 10299 10307 10315 10324 10332 10339 10348 10358 10366 10373 10382 10391 10396 10403 10411 10419
10206 10200 10195 10189 10182 10177 10173 10171 10168 10164 10163 10162 10161 10162 10163 10163 10166 10168 10172 10175 10179 10183 10187 10191 10196 10200 10206 10212 10219 10226 10233 10241 10249 10258 10266 10273 10280 10289 10297 10306 10313 10321 10329 10339 10348 10356 10365 10370 10376 10384 10393 10400
10200 10194 10188 10183 10177 10171 10165 10161 10160 10156 10154 10153 10152 10152 10152 10153 10154 10156 10159 10163 10167 10170 10174 10177 10181 10186 10190 10195 10201 10208 10215 10224 10231 10239 10247 10255 10263 10271 10280 10287 10294 10301 10310 10321 10330 10338 10346 10352 10359 10368 10375 10382
10195 10187 10180 10175 10171 10166 10159 10154 10151 10149 10146 10144 10143 10142 10142 10143 10144 10144 10146 10150 10153 10157 10160 10164 10168 10172 10176 10181 10186 10192 10199 10206 10214 10221 10229 10236 10244 10254 10262 10269 10276 10283 10290 10301 10311 10318 10328 10334 10341 10350 10357 10364
10191 10182 10175 10168 10163 10159 10155 10149 10143 10141 10138 10136 10134 10133 10133 10134 10134 10134 10135 10138 10141 10144 10147 10150 10154 10157 10162 10166 10171 10176 10181 10188 10195 10203 10210 10217 10226 10236 10245 10252 10259 10265 10271 10281 10292 10300 10309 10315 10323 10334 10340 10347
10188 10180 10171 10163 10156 10151 10148 10144 10138 10134 10131 10128 10126 10125 10125 10125 10125 10125 10125 10127 10129 10132 10135 10137 10140 10144 10148 10152 10157 10161 10166 10171 10177 10185 10193 10201 10209 10218 10227 10235 10243 10248 10253 10262 10273 10281 10289 10296 10305 10316 10321 10328